Terug naar catalogus

THORAD DELTA 1 DEB

ActiefSSO
NORAD 8592·DEBRIS·🇺🇸 United States

Gelanceerd Nov 15, 1974 vanaf Vandenberg Space Force Base

Loading…

Volgende Passages (komende 24 uur)

TLE

VersSource: Space-Track

Epoch: Sep 14, 2026, 03:38 UTC

1 08592U 74089DF  26257.15175047  .00000032  00000-0  60630-3 0  9997
2 08592 101.8223 333.3881 0122779 269.8641 120.6662 12.31902813329025

Volg THORAD DELTA 1 DEB in realtime met AllMySat

Download on the App Store